Theta_e
297 297 297 297 297 297 296 296 296 296 296 295 295 295 295 295 294 294 294 294 294 294 294 294 293 293 293 293 292 291 290 290 290 290 290 290 290 289 290 290 291 292
297 296 297 296 296 296 296 296 296 296 296 296 296 295 295 294 294 294 294 293 293 293 293 293 292 292 292 292 292 291 290 289 289 289 289 289 289 289 289 290 290 291
296 296 296 296 296 296 296 296 295 295 296 295 295 295 295 295 294 294 293 293 293 293 292 292 292 292 292 291 291 290 290 289 289 289 289 289 289 289 289 290 290 290
295 295 296 295 295 295 295 295 295 295 295 295 295 295 295 295 294 294 293 293 293 292 292 292 291 291 291 291 290 290 289 289 289 288 288 288 289 289 289 289 289 289
294 295 295 295 295 295 295 295 295 295 295 295 295 295 295 295 294 294 294 293 293 292 292 291 291 291 290 290 289 289 289 288 288 288 288 288 288 288 288 288 288 288
294 294 294 294 295 294 295 295 295 295 295 295 295 295 294 294 294 294 294 293 293 293 292 291 291 290 290 289 289 289 288 288 287 287 287 287 287 287 287 288 288 288
294 294 294 294 294 294 294 294 294 294 294 294 294 294 294 294 293 293 293 293 293 293 292 292 291 290 290 289 289 288 288 288 287 287 287 287 287 287 287 287 287 287
293 293 293 293 293 293 294 294 294 294 294 294 294 294 293 293 293 293 293 293 293 292 292 291 291 290 290 289 289 288 288 287 287 286 286 286 286 286 286 286 286 286
293 292 292 292 292 293 293 293 294 294 294 293 293 293 293 293 293 292 292 292 292 292 291 291 290 290 290 290 289 288 288 287 286 286 286 286 286 286 286 286 285 285
292 292 292 292 292 292 292 292 293 293 293 293 293 293 292 292 292 292 292 291 291 291 291 290 290 290 289 289 289 288 288 287 287 286 286 286 286 286 286 286 285 285
291 291 291 291 291 291 291 291 292 292 292 292 292 292 292 292 291 291 291 291 291 290 290 290 290 289 289 289 288 288 287 287 287 286 286 285 285 286 286 286 286 285
290 291 291 291 291 291 291 291 291 291 291 291 291 291 291 291 290 290 290 290 290 290 290 290 289 289 289 288 288 287 287 287 286 286 286 285 285 285 285 285 286 285
289 290 290 291 290 290 290 290 291 291 291 291 291 291 291 290 290 290 290 290 290 290 290 289 289 289 288 288 288 287 287 286 286 285 285 285 285 285 285 285 285 285
288 289 289 290 291 291 290 290 290 290 290 291 291 290 290 290 290 290 289 289 289 289 289 289 288 288 288 288 287 287 286 286 286 285 285 284 284 284 284 284 284 284
288 288 288 289 290 291 291 290 290 289 289 290 290 290 290 290 290 290 289 289 289 288 288 288 288 288 288 287 287 286 286 286 285 285 285 284 284 284 283 283 283 283
288 288 288 288 289 290 291 291 290 290 289 289 289 290 290 290 290 289 289 288 288 288 288 287 287 287 288 288 287 287 286 286 285 285 285 284 284 283 283 282 282 283
287 287 287 288 288 288 289 290 291 290 290 289 289 289 289 289 289 289 289 288 288 288 287 287 287 287 287 287 287 287 287 286 285 285 284 284 284 283 283 282 282 282
287 287 287 287 287 287 287 288 289 290 290 289 288 288 288 288 288 288 288 288 288 287 287 287 287 287 287 287 287 286 286 286 286 285 284 284 283 283 282 282 281 281
286 286 287 287 287 286 286 287 287 288 289 289 288 288 287 287 288 288 288 287 287 287 287 287 287 287 287 286 286 286 286 286 286 285 284 284 283 283 282 282 281 281
285 286 287 287 286 286 285 285 286 287 288 288 288 287 287 287 287 287 287 287 287 287 286 286 287 287 286 286 286 286 285 285 285 285 284 284 283 283 282 282 281 281
284 285 286 286 286 285 285 285 285 285 286 287 288 287 286 286 286 286 286 286 286 286 286 286 286 286 286 286 285 285 285 286 285 285 284 283 283 282 282 281 281 280
283 285 286 285 285 284 284 284 284 284 285 286 287 287 286 286 286 286 286 286 286 286 285 285 286 285 285 285 285 285 286 286 286 285 284 283 283 282 281 281 280 280
281 284 285 284 283 283 283 283 283 283 284 284 286 286 286 286 285 285 285 285 285 285 285 285 285 285 285 285 285 285 286 286 286 285 284 283 282 282 281 280 280 280
280 283 283 282 281 281 280 280 281 282 283 283 284 285 285 286 285 285 284 284 284 284 284 284 284 284 284 284 284 285 286 286 286 285 284 283 282 281 280 280 279 279
279 281 281 279 279 278 278 278 279 281 282 283 283 284 285 285 285 284 284 284 284 284 284 284 284 284 284 284 284 285 286 286 286 285 283 282 281 280 279 279 278 278
278 279 277 277 276 275 275 277 278 280 281 282 282 283 283 284 284 284 283 283 283 283 283 283 283 283 283 283 284 285 286 286 286 285 283 282 280 279 278 278 277 277
Wind_Speed
28 28 28 29 29 29 29 29 30 31 33 36 38 40 41 42 42 43 45 46 46 47 48 48 48 48 48 48 48 48 48 49 48 47 46 45 44 42 39 37 36 34
27 28 28 29 29 29 28 29 30 31 33 36 37 38 39 39 40 42 45 46 46 46 47 46 47 47 47 48 48 48 49 49 48 48 47 46 45 43 41 39 37 36
26 27 28 29 29 28 27 27 28 30 33 35 36 37 37 38 39 40 42 44 45 46 46 46 47 47 47 48 48 48 49 49 49 48 47 47 46 45 44 41 39 38
25 27 28 29 30 29 28 27 28 30 32 34 35 36 37 38 38 39 40 42 44 44 45 45 46 47 47 47 47 48 49 49 49 48 47 47 47 46 45 43 41 40
24 25 27 28 30 30 30 30 31 32 33 35 36 36 37 37 38 39 40 41 43 44 44 45 45 46 46 46 47 47 48 47 47 47 47 48 47 47 46 44 43 42
22 24 26 28 29 30 31 32 33 33 34 36 36 37 38 38 39 40 41 42 43 44 45 46 46 46 46 46 46 47 47 47 46 46 47 48 47 46 45 45 44 44
21 22 24 26 29 30 32 33 34 34 35 35 36 37 37 38 39 40 41 42 43 45 46 47 47 47 47 46 47 47 47 46 46 46 47 47 47 46 46 46 45 45
22 22 22 23 26 29 32 34 34 35 35 35 36 37 37 38 39 40 41 42 43 45 46 47 48 48 48 48 49 49 48 47 46 47 47 47 46 46 47 46 45 44
28 25 22 22 23 26 30 33 34 35 35 36 37 37 37 38 39 40 41 42 43 44 45 46 47 48 49 50 51 51 49 48 48 48 50 49 48 49 48 47 45 45
32 30 26 23 23 24 26 29 32 33 34 36 37 37 37 38 39 39 40 41 42 44 44 45 47 48 49 50 52 52 52 51 50 50 51 51 51 51 50 49 49 47
33 32 31 29 27 26 25 27 29 30 31 33 34 36 37 37 38 38 39 40 42 43 44 45 47 48 49 50 51 51 51 52 52 52 52 52 51 52 52 53 53 52
36 35 34 33 31 29 28 27 28 28 29 30 31 33 35 36 37 38 39 41 43 43 44 45 45 46 48 50 50 49 49 49 49 51 52 53 52 52 53 55 55 54
35 36 36 36 34 33 31 29 28 28 29 29 30 32 33 34 35 37 39 41 42 43 44 44 43 45 47 48 49 49 48 47 47 48 50 51 53 53 53 54 55 54
32 34 36 37 37 36 35 32 30 29 29 30 30 31 33 34 35 36 38 39 41 42 42 42 43 45 47 47 47 47 47 46 46 46 48 50 50 50 51 52 53 53
31 32 34 36 37 38 38 36 34 32 29 29 30 31 32 33 35 36 37 38 39 40 40 41 42 45 46 46 46 45 45 46 46 46 46 47 46 45 46 49 50 52
31 31 32 34 35 36 37 38 37 36 33 31 30 30 32 33 35 36 37 38 38 38 39 40 43 45 46 46 47 47 46 45 45 46 45 45 43 42 43 45 48 49
33 34 34 34 34 35 36 38 38 38 36 34 32 30 31 33 34 36 37 38 38 38 40 41 43 45 45 47 49 50 48 46 45 45 45 44 43 42 43 44 46 46
32 34 35 35 35 35 35 36 37 37 37 36 34 32 31 31 33 35 36 37 38 39 40 42 43 44 45 46 47 49 50 48 45 44 44 44 44 44 44 44 44 44
30 31 33 34 35 35 35 34 34 35 35 35 34 33 31 30 31 33 35 36 37 38 40 42 43 43 43 44 45 47 49 49 46 43 43 44 44 45 44 44 44 44
29 29 30 31 33 34 35 34 33 33 33 33 33 33 31 30 31 32 34 35 36 38 39 40 41 42 41 42 43 45 46 48 46 44 43 43 44 45 44 45 45 46
30 30 29 30 31 32 33 33 33 33 33 33 32 31 31 31 31 31 33 34 35 37 38 39 40 39 39 40 41 42 43 44 44 44 43 42 42 43 43 45 46 47
32 31 30 30 31 32 32 32 32 32 33 33 32 31 31 30 31 32 32 33 34 35 36 38 38 37 37 38 39 39 39 39 41 42 42 40 40 40 41 43 44 46
31 30 31 32 32 31 32 33 33 33 33 32 31 31 31 30 31 32 32 33 33 34 35 37 37 36 35 36 37 37 37 37 38 39 39 39 39 38 39 41 43 45
29 28 29 32 32 32 33 35 36 35 34 32 31 31 31 31 31 31 32 32 33 34 34 36 37 36 34 34 35 35 37 38 37 36 37 37 36 35 36 38 40 43
28 27 28 30 32 34 36 36 36 35 35 34 33 32 32 32 31 30 31 32 32 33 34 34 35 34 33 33 33 33 36 38 36 35 35 34 33 32 32 34 37 39
27 27 30 31 33 36 38 37 35 34 35 35 34 33 32 32 31 30 31 32 31 31 32 33 33 33 32 33 32 32 36 38 37 36 35 33 32 31 31 32 35 36
Wind_Direction
240 241 240 240 239 237 235 232 228 224 222 222 222 223 223 223 222 221 220 220 219 219 219 219 219 219 218 219 219 219 220 220 220 220 219 218 219 219 219 219 218 218
246 246 246 245 245 244 242 240 237 233 230 228 227 227 226 225 224 223 222 221 220 221 220 219 219 219 219 219 219 219 219 219 219 219 218 218 219 218 219 219 218 218
253 251 250 249 248 248 246 244 243 240 238 235 232 231 229 228 227 225 224 222 221 221 221 220 220 220 219 219 219 219 219 219 219 219 218 218 218 218 218 218 218 218
263 259 256 254 252 251 250 247 245 243 241 239 237 235 234 232 230 228 226 224 223 223 222 221 221 220 220 219 219 219 219 220 220 219 218 218 218 218 218 217 217 217
274 269 265 261 258 255 253 249 247 245 242 241 240 238 236 233 231 229 228 226 225 224 224 223 222 221 220 219 219 219 218 218 219 218 217 217 217 217 217 216 215 215
291 282 276 271 267 261 257 253 251 248 246 244 242 240 237 234 232 230 228 227 226 225 224 223 223 222 221 220 219 219 219 218 218 217 216 216 216 216 216 216 215 215
316 303 292 283 277 270 264 259 256 253 250 248 245 242 239 236 234 231 229 228 226 225 224 223 222 221 220 220 219 219 219 219 218 217 216 216 216 215 215 215 215 214
339 326 312 298 285 277 271 266 262 258 255 252 249 246 242 238 235 233 231 229 227 226 224 223 222 221 220 219 219 219 218 217 217 216 215 214 214 215 214 214 213 213
358 348 333 314 296 285 278 273 269 265 260 255 252 249 245 242 238 235 232 230 228 226 224 222 221 220 220 219 219 218 217 216 216 216 215 213 213 214 214 212 211 211
4 359 351 335 317 302 291 284 278 272 266 260 256 252 248 245 242 237 234 231 228 227 224 222 221 220 219 220 219 218 217 216 216 216 215 214 214 214 213 212 211 210
4 2 358 350 338 325 313 301 291 281 273 266 260 254 250 247 243 239 235 232 230 228 226 225 223 221 220 220 220 219 218 217 216 216 216 215 215 215 214 213 213 211
1 360 358 354 349 341 332 321 309 297 286 276 267 260 254 249 245 240 236 234 233 231 229 227 225 222 221 221 220 219 219 218 217 216 216 215 215 215 215 215 214 212
358 357 355 354 351 347 343 336 326 314 302 291 281 271 262 254 248 244 240 238 236 234 232 229 227 225 224 223 221 220 218 218 218 217 217 216 216 215 215 216 215 212
354 354 354 353 352 350 348 344 337 327 315 304 293 280 270 262 256 251 246 243 239 237 234 231 228 226 225 223 222 221 219 218 218 218 218 218 217 216 216 215 214 212
351 351 351 352 352 351 349 346 341 335 326 314 302 289 279 271 263 257 252 247 242 239 237 233 230 228 227 224 222 220 219 219 218 218 219 219 218 218 217 216 215 214
347 347 348 349 349 348 347 346 343 340 333 323 310 297 286 277 268 260 254 249 245 242 238 234 232 231 229 227 224 222 220 219 219 219 219 218 219 219 218 217 217 215
344 344 344 345 345 345 345 344 342 340 337 330 319 306 293 281 271 262 256 250 246 243 240 237 235 234 231 229 227 224 221 219 219 219 219 218 218 218 217 217 217 215
341 340 340 340 341 341 342 341 340 338 336 333 325 314 301 287 273 264 257 251 247 244 242 239 238 237 234 231 229 226 223 221 220 219 219 218 218 218 217 216 215 213
337 336 335 334 335 336 336 337 336 334 333 331 326 320 308 293 278 268 260 253 248 245 243 241 241 240 237 234 231 228 225 222 221 220 220 219 219 218 217 216 213 211
335 333 330 329 330 331 331 331 331 330 329 327 325 321 312 298 285 274 264 257 251 247 245 244 243 241 238 236 233 230 226 224 222 222 221 221 220 219 217 216 214 211
333 330 327 326 327 327 327 326 325 325 325 324 322 317 311 302 291 280 270 263 256 250 248 247 245 243 240 237 234 230 227 224 222 223 223 223 222 220 218 216 214 212
330 327 324 324 325 324 323 321 320 319 319 320 318 314 310 303 293 284 275 268 262 255 250 249 248 245 241 238 234 230 225 222 222 222 223 223 223 221 219 217 215 213
325 322 320 320 321 321 320 318 316 314 313 314 312 310 307 302 295 288 280 272 265 258 253 250 249 246 242 239 235 227 222 220 221 221 222 223 223 221 219 217 215 213
319 316 315 316 317 316 315 314 313 310 309 308 307 303 301 298 294 288 281 275 267 260 256 253 251 248 242 238 234 225 219 219 219 219 221 223 222 220 218 216 215 214
313 310 310 312 311 311 311 310 308 306 305 305 303 300 297 295 291 285 280 275 269 264 259 254 253 250 243 236 230 221 218 219 218 217 219 220 218 216 215 214 213 212
308 306 307 307 307 307 308 307 305 303 302 302 300 297 294 291 287 282 278 276 273 267 262 256 252 250 245 238 229 219 216 218 218 217 216 215 213 210 209 210 210 210